GFSSGP_con_lsi_024.txt.gz
Lid_Strength_Index
-1 0 0 2 8 7 9 8 6 8 9 6 5 6 7 7 9 12 2 1 1 0 -1 -1 -1 -1 -1 -1 -1 -1 -2 -2 -2 -2 -2 -2 -2 -2 -2 -3 -3 -3 -3 -3 -2 -2 -2 -2 -2
-0 0 1 6 9 11 10 7 10 8 6 5 5 5 6 8 4 4 3 1 0 -0 -1 -1 -1 -1 -1 -1 -1 -1 -2 -2 -2 -2 -2 -2 -2 -2 -3 -3 -3 -3 -2 -2 -2 -3 -2 -2 -2
1 1 6 8 8 10 10 7 7 6 5 5 6 4 5 7 4 3 1 0 0 -0 -1 -1 -1 -1 -1 -1 -1 -1 -2 -2 -2 -2 -2 -2 -2 -2 -2 -2 -2 -3 -2 -2 -2 -2 -2 -2 -3
3 4 5 8 9 8 7 8 6 6 5 5 5 7 4 2 3 2 0 -0 0 -0 -1 -0 -1 -1 -1 -1 -1 -1 -2 -2 -2 -2 -2 -2 -2 -2 -2 -2 -2 -2 -2 -2 -2 -2 -2 -3 -3
3 5 9 9 8 7 6 6 6 8 8 6 5 7 6 3 1 1 1 0 1 0 -1 -1 -1 -1 -1 -1 -1 -2 -1 -2 -2 -2 -2 -3 -2 -2 -2 -2 -2 -2 -2 -2 -2 -2 -2 -3 -3
6 6 9 10 9 7 6 6 7 8 7 6 6 6 6 2 2 1 0 0 -0 0 -1 -1 -1 -1 -1 -1 -1 -1 -1 -2 -2 -2 -2 -2 -2 -2 -2 -2 -2 -2 -2 -2 -2 -2 -2 -2 -3
6 7 9 9 9 7 7 5 7 7 7 6 5 8 5 3 2 1 1 0 -0 -1 -0 -1 -1 -1 -1 -1 -1 -1 -2 -2 -2 -2 -3 -3 -3 -2 -3 -3 -2 -2 -2 -2 -2 -2 -3 -3 -3
5 6 8 8 9 8 7 6 5 6 7 4 4 8 8 4 1 1 1 0 1 -0 -0 -0 -0 -1 -1 -1 -1 -1 -2 -2 -2 -3 -3 -3 -3 -3 -3 -3 -3 -2 -2 -2 -3 -3 -4 -4 -4
3 8 9 8 8 10 7 8 5 4 5 5 5 5 4 2 1 2 2 2 1 1 0 -0 -0 -0 -1 -1 -1 -2 -2 -2 -3 -3 -3 -1 -1 -1 -1 -2 -3 -3 -3 -3 -3 -3 -3 -3 -3
6 8 8 6 7 9 7 7 6 5 6 6 5 4 3 2 3 3 3 3 2 2 1 0 -0 -0 -0 -1 -1 -1 -1 -1 -1 -1 -0 -0 -1 -0 -1 -2 -3 -3 -2 -2 -3 -3 -3 -3 -0
6 8 6 6 6 6 7 6 5 7 8 6 8 5 4 3 3 3 3 3 2 1 1 0 0 -0 -0 -0 -0 -0 -1 -1 -1 -1 -1 -1 -1 -1 -1 -1 -0 -1 -1 -1 -1 -1 -1 -0 0
7 6 6 5 6 6 8 5 6 6 6 4 4 3 3 4 4 3 3 3 2 2 1 0 -0 -0 -0 -1 -0 -1 -0 -1 -0 -1 -1 -1 -1 -0 -0 -0 -1 -0 -1 -0 -0 -0 -1 -0 0
6 6 5 4 5 6 5 6 6 6 5 4 5 3 4 4 3 2 2 2 2 2 1 1 -0 -0 -0 -0 -0 -0 -0 -1 -1 -1 -1 -1 -0 -0 -0 -1 -1 -1 -1 -0 -0 1 1 1 1
5 5 5 5 5 5 6 6 6 6 4 5 4 4 4 3 3 2 2 2 2 2 1 0 0 -0 -1 -0 -0 -0 -0 -1 -1 -1 -1 -1 -1 -0 -0 -0 -0 -0 0 0 0 0 0 1 1
5 7 6 6 5 5 5 7 7 5 4 5 4 4 3 3 2 3 2 2 2 1 1 1 0 -0 -0 0 0 -0 -1 -1 -0 -0 -1 -1 -1 -0 -0 -0 0 -0 0 0 -0 0 1 1 1
7 7 10 7 5 5 6 10 6 4 5 5 5 4 4 3 3 2 2 2 1 1 1 0 -0 0 0 0 -0 -0 -0 -0 -0 -1 -1 -1 -1 -0 0 0 0 -0 -1 0 1 1 2 2 2
8 11 10 8 5 6 6 9 5 4 5 5 5 4 4 4 3 2 2 1 1 1 1 1 0 0 0 -0 -1 -0 -1 -0 -0 -1 -1 -1 -1 -1 -0 -0 -0 -0 0 0 1 1 2 2 3
11 10 9 9 7 6 7 8 6 5 5 5 5 4 4 4 3 2 2 1 1 1 1 1 1 0 0 -0 -0 -0 -0 -0 -1 -1 -0 -1 -0 -0 -0 -0 0 0 1 1 1 2 2 2 4
8 9 9 8 6 7 7 7 6 5 5 6 5 5 5 4 3 2 1 1 1 1 1 1 1 0 0 1 1 1 1 1 0 -0 -1 -0 0 1 1 1 1 1 1 1 2 3 4 4 4
8 9 9 8 6 7 8 8 6 6 5 5 5 5 5 4 3 3 2 2 1 2 1 1 1 1 0 0 1 0 1 0 0 0 1 1 1 1 1 1 1 2 3 3 3 4 5 5 5
8 9 9 9 7 7 8 9 8 6 5 5 4 4 4 4 4 4 3 2 2 2 2 1 1 1 0 0 0 1 1 1 1 1 2 2 1 1 2 2 3 4 3 4 4 4 5 6 6
10 7 8 8 9 11 8 14 11 9 7 6 5 5 4 4 4 3 3 3 3 2 1 1 1 1 0 0 1 1 2 2 1 1 2 2 1 2 3 4 4 3 3 4 4 4 5 6 8
9 7 8 8 9 11 11 13 11 9 9 7 6 5 5 4 4 4 3 3 2 2 2 1 1 1 1 0 0 1 2 1 2 2 3 4 4 5 5 5 4 5 4 4 4 4 5 6 7
6 7 8 8 9 16 11 13 12 10 9 9 6 5 5 4 4 3 3 2 2 2 1 1 2 2 1 0 0 1 2 3 4 5 6 6 6 6 5 5 5 5 4 4 4 5 5 5 6
7 9 13 17 18 17 9 11 12 8 8 8 8 5 5 4 4 4 4 3 3 2 2 2 2 2 1 2 2 3 4 4 5 6 6 6 7 7 6 6 6 5 5 5 5 5 6 6 6
10 9 14 21 21 15 10 12 10 7 5 6 5 5 5 5 4 4 3 3 3 2 2 2 2 2 3 2 4 4 5 5 6 5 6 7 7 7 7 6 6 5 5 5 5 6 5 5 5
8 10 7 12 12 14 11 10 7 6 6 5 6 5 5 5 4 4 3 3 2 2 2 2 2 3 3 4 4 5 5 6 6 5 6 6 6 7 6 6 6 6 6 5 6 5 5 5 6
7 6 12 10 16 17 12 12 11 9 7 6 6 6 5 5 4 3 3 3 2 2 2 2 2 4 5 5 5 6 6 5 5 5 6 7 7 6 6 6 7 7 6 6 6 6 6 7 7
9 9 9 9 12 17 18 12 7 7 6 6 6 6 5 5 4 3 3 2 2 2 2 2 3 5 5 5 5 6 6 5 5 5 6 7 6 6 6 7 7 7 7 7 7 7 7 7 7
7 9 8 15 14 14 15 13 6 6 5 5 5 5 5 4 4 3 3 3 2 2 2 3 4 5 5 5 6 6 5 6 6 6 6 6 6 6 7 7 7 7 7 7 7 7 7 7 7

GFSSGP_con_lsi_027.txt.gz
Lid_Strength_Index
0 1 3 5 11 13 14 11 8 10 10 7 5 7 9 8 10 13 2 1 0 0 -0 -1 -1 -1 -1 -1 -1 -2 -2 -2 -2 -2 -2 -2 -2 -3 -3 -3 -3 -3 -3 -3 -3 -3 -3 -2 -2
2 2 4 7 14 17 14 9 11 9 7 5 5 6 8 9 5 4 3 1 -0 -0 -0 -1 -1 -1 -1 -1 -1 -2 -2 -2 -2 -2 -2 -2 -3 -2 -2 -2 -3 -3 -3 -2 -2 -2 -2 -2 -2
1 2 8 12 14 15 13 10 9 7 6 6 7 5 6 8 4 4 1 1 -0 -0 -0 -1 -1 -1 -1 -1 -1 -2 -2 -2 -2 -2 -3 -3 -2 -2 -2 -3 -3 -3 -2 -2 -2 -2 -2 -2 -4
4 7 9 13 13 11 11 9 8 8 7 6 6 8 5 3 3 2 1 1 1 -0 -1 -1 -1 -1 -1 -1 -1 -2 -2 -2 -2 -2 -3 -2 -2 -2 -2 -2 -3 -2 -2 -2 -2 -2 -2 -4 -4
5 9 14 14 12 10 7 7 7 8 8 7 6 8 7 3 1 1 1 0 1 0 -0 -1 -1 -1 -1 -2 -2 -2 -2 -2 -2 -2 -2 -2 -2 -2 -2 -2 -2 -2 -2 -2 -2 -2 -3 -4 -4
8 10 14 14 12 8 8 7 7 8 7 7 7 7 6 2 2 1 0 0 1 0 -0 -1 -1 -1 -1 -1 -1 -1 -2 -2 -2 -2 -2 -2 -2 -3 -3 -3 -3 -2 -2 -2 -2 -3 -3 -3 -4
9 11 13 12 12 10 9 6 8 8 8 8 5 9 6 4 2 1 1 1 0 -0 -0 -0 -1 -1 -1 -1 -1 -1 -2 -2 -3 -3 -3 -3 -3 -3 -3 -3 -3 -3 -3 -3 -3 -3 -3 -3 -3
8 10 12 12 12 12 8 7 6 7 8 4 4 9 8 4 2 1 1 0 1 1 0 -0 -0 -1 -0 -1 -1 -1 -2 -2 -3 -3 -3 -3 -3 -3 -3 -3 -3 -3 -3 -3 -3 -3 -3 -3 -3
7 12 13 12 10 10 7 8 6 5 6 5 5 5 4 2 2 2 2 2 2 1 0 -0 -0 -0 -0 -1 -1 -2 -2 -3 -3 -2 -3 -1 -1 -1 -2 -2 -3 -4 -3 -3 -2 -2 -2 -3 -2
9 12 11 7 8 9 7 7 7 7 7 7 6 4 3 2 3 3 3 3 3 2 1 -0 -0 -0 -0 -1 -0 -0 -1 -1 -1 1 0 1 1 0 -1 -2 -2 -2 -2 -2 -2 -2 -2 -2 2
9 10 9 7 7 7 8 7 5 7 9 7 7 6 4 4 3 3 3 3 3 2 1 0 0 -0 0 -0 -0 0 1 0 -0 2 2 0 -0 0 1 1 1 1 -1 -0 -1 -0 0 1 2
10 7 7 6 6 6 8 7 7 7 7 5 4 5 4 4 4 4 3 3 2 2 1 0 0 0 0 -0 -0 1 1 0 0 0 -0 0 0 1 0 1 1 0 1 1 1 2 2 2 2
8 7 6 5 6 7 6 7 7 6 5 4 4 4 4 4 4 3 2 2 2 2 1 1 0 1 1 0 -0 0 0 -0 -0 -0 0 0 1 2 1 1 1 0 1 2 2 2 3 3 2
6 8 7 6 6 6 7 7 7 6 5 6 5 5 4 4 4 3 3 3 2 2 1 1 0 0 0 0 0 1 1 0 0 0 0 1 1 1 0 1 1 2 2 3 3 3 3 3 3
6 9 9 7 6 7 6 9 9 5 5 6 6 5 4 3 3 3 3 3 2 2 1 1 1 1 1 1 2 2 1 -0 0 0 0 0 0 0 1 1 2 2 2 3 2 2 2 3 2
9 9 11 8 6 6 7 11 8 6 6 7 6 5 5 4 4 3 2 2 2 1 1 1 0 1 2 2 2 1 0 1 1 1 0 0 0 1 2 2 3 2 2 2 3 3 3 3 3
10 13 11 9 7 7 8 10 7 6 6 6 6 6 5 5 4 3 3 2 2 1 1 2 1 2 2 2 1 1 1 1 0 1 1 0 1 1 2 2 3 3 2 2 3 3 3 4 4
12 12 12 11 9 8 10 10 8 7 6 7 7 6 6 6 5 3 3 2 2 1 1 1 2 2 2 2 1 1 1 1 1 1 2 2 2 2 2 3 3 3 3 4 4 5 5 4 6
9 10 11 10 8 8 9 9 9 8 7 7 7 6 5 5 4 3 3 3 2 2 1 1 2 2 2 1 2 2 2 2 3 3 3 3 2 2 3 3 3 4 4 5 5 5 6 6 6
8 10 10 10 8 9 10 10 9 8 8 7 7 7 6 5 4 3 3 3 2 2 2 2 2 1 1 1 1 2 2 2 3 3 3 3 3 3 3 4 4 5 5 6 6 6 7 7 7
9 11 11 10 10 11 10 11 9 8 7 6 6 5 5 5 5 4 4 4 3 2 2 2 2 1 1 1 0 3 3 4 4 4 4 3 3 3 3 4 5 5 6 6 6 6 7 8 8
11 8 8 9 10 14 10 15 11 9 8 7 7 7 5 5 4 4 4 4 3 3 2 2 1 1 1 1 4 5 4 5 4 4 4 4 3 5 6 6 7 7 6 6 6 5 7 8 9
10 8 8 9 10 12 12 14 12 9 9 8 8 7 7 5 4 4 4 3 3 2 2 1 1 1 2 3 3 4 5 5 4 5 6 7 7 6 6 6 8 8 7 8 7 7 7 8 9
7 8 9 10 11 17 12 13 14 12 9 9 7 6 6 6 5 4 3 3 3 2 2 3 4 4 5 5 5 4 5 7 8 8 8 8 6 7 6 7 7 7 7 7 7 7 8 8 8
8 11 16 18 19 19 11 13 12 9 8 7 7 6 7 5 5 5 4 4 4 5 5 6 6 6 6 7 7 7 7 8 8 8 8 7 9 9 8 8 8 8 7 7 7 7 8 8 8
10 11 17 21 21 18 11 15 12 7 6 6 6 6 6 6 5 5 6 6 6 6 6 7 6 6 6 6 8 8 8 8 8 8 8 8 8 8 8 7 9 9 7 8 7 7 7 8 8
9 12 9 15 14 18 14 11 9 8 8 8 7 7 7 6 7 6 6 6 7 7 6 7 6 6 6 8 8 8 8 8 8 8 8 8 8 8 8 8 9 8 8 8 8 8 7 7 8
9 8 13 14 18 20 15 14 14 10 9 8 8 7 7 6 7 7 6 6 6 5 4 5 5 6 7 8 8 8 8 8 8 8 7 9 9 8 8 8 8 8 8 8 8 8 8 9 9
10 11 11 11 14 19 20 15 10 10 8 9 8 7 6 6 7 6 6 5 4 4 4 4 5 7 7 7 8 8 8 7 7 7 7 8 7 9 9 8 8 9 8 8 9 9 9 8 9
9 10 11 16 15 16 17 15 9 9 8 7 8 6 6 6 6 6 6 5 4 4 4 4 7 7 7 7 8 8 7 6 7 6 7 8 8 8 8 8 8 8 8 8 9 9 9 9 9

GFSSGP_con_lsi_030.txt.gz
Lid_Strength_Index
1 2 4 5 11 14 15 12 10 9 10 7 6 8 9 8 10 13 2 1 0 0 -0 -1 -1 -1 -1 -1 -2 -2 -2 -2 -2 -2 -2 -2 -2 -3 -3 -3 -3 -3 -3 -3 -3 -3 -3 -3 -2
2 3 5 9 14 17 15 11 10 10 7 6 6 7 8 9 5 4 3 1 0 -0 -0 -1 -1 -1 -1 -1 -2 -2 -2 -2 -2 -2 -2 -2 -2 -2 -2 -2 -2 -3 -2 -2 -3 -3 -3 -2 -3
2 1 7 12 16 16 15 10 10 8 6 7 7 5 7 8 4 4 1 0 -0 -0 -0 -1 -1 -1 -1 -1 -2 -2 -2 -2 -2 -2 -2 -2 -2 -3 -2 -2 -2 -3 -2 -2 -2 -2 -2 -3 -4
4 7 10 14 15 13 11 11 8 8 6 6 7 8 5 3 4 2 1 0 0 0 -0 -0 -0 -1 -1 -1 -2 -2 -2 -2 -2 -2 -2 -2 -2 -2 -2 -2 -2 -2 -2 -2 -2 -2 -2 -4 -4
5 9 14 15 14 10 9 8 7 9 8 7 6 9 8 3 2 2 1 0 1 0 -0 -0 -0 -1 -1 -2 -2 -2 -2 -2 -2 -2 -2 -2 -2 -2 -2 -2 -2 -2 -2 -2 -2 -2 -4 -4 -4
8 10 15 15 12 10 9 7 7 8 7 7 7 8 7 2 2 1 0 0 -0 0 -0 -1 -1 -1 -1 -1 -1 -1 -2 -2 -2 -2 -2 -2 -2 -2 -2 -2 -2 -3 -3 -3 -3 -4 -4 -4 -4
9 11 14 13 12 10 9 6 8 8 8 8 6 9 6 4 2 1 1 0 -0 0 0 -0 -1 -1 -1 -1 -1 -1 -2 -2 -2 -2 -2 -2 -2 -2 -3 -3 -3 -3 -3 -3 -3 -3 -3 -3 -3
8 11 14 13 13 12 8 7 6 7 8 4 5 9 8 4 2 1 1 1 1 2 1 1 -0 -1 -1 -1 -1 -2 -2 -2 -2 -2 -3 -3 -3 -3 -3 -3 -3 -3 -3 -3 -3 -3 -3 -3 -3
8 12 14 13 10 10 7 8 6 5 6 6 5 6 4 2 2 2 2 2 1 1 1 1 0 -0 -0 -0 -1 -2 -3 -2 -3 -2 -2 -2 -1 -1 -2 -2 -3 -3 -3 -2 -2 -2 -2 -2 -3
9 12 12 9 8 9 8 8 7 7 8 8 7 4 3 2 3 3 4 3 2 2 1 1 -0 -0 -0 -1 -0 -0 -1 -1 -0 -0 -0 0 1 0 -1 -2 -2 -2 -2 -2 -2 -2 -2 -0 2
10 10 9 7 7 7 8 8 6 7 10 7 8 6 4 4 3 3 3 3 2 2 2 1 0 -0 -0 0 0 0 -0 1 1 1 1 1 0 1 1 1 1 1 -0 0 1 2 2 2 2
10 8 8 7 7 7 8 6 8 7 7 5 5 4 4 4 4 4 3 3 3 2 1 0 -0 -0 0 -0 0 0 -0 0 1 -0 -0 1 0 1 2 2 1 1 2 2 3 3 3 4 3
9 8 7 6 6 6 6 7 8 8 5 4 4 4 4 4 4 3 2 2 2 2 1 1 -0 0 0 0 1 1 -0 -0 0 1 0 1 2 2 2 2 2 2 3 3 4 4 4 4 4
7 8 6 6 7 6 7 7 7 7 5 5 5 5 5 4 4 3 3 3 3 2 1 0 0 1 0 0 0 0 -0 0 1 1 1 2 2 2 2 2 2 3 3 3 5 5 4 4 4
7 10 7 7 7 8 6 9 9 7 5 6 6 5 5 4 3 4 3 3 2 1 1 1 2 0 0 1 2 2 2 1 2 1 1 2 1 1 2 3 4 4 3 4 3 4 4 4 4
9 10 12 8 7 7 8 12 8 7 6 7 6 6 5 4 4 3 2 2 1 2 2 1 0 1 2 3 3 3 2 2 1 1 1 1 2 2 3 4 4 4 3 3 4 4 4 5 5
11 14 12 11 7 7 9 12 7 7 7 8 7 6 5 5 4 3 2 2 2 1 2 2 2 2 3 3 3 2 2 1 1 1 1 1 1 2 3 4 4 3 4 4 4 5 5 5 6
12 12 12 12 10 8 10 10 8 7 7 7 8 7 6 5 5 3 2 2 1 1 2 1 2 2 2 3 2 2 2 1 2 2 2 3 3 3 4 4 4 4 5 5 6 6 6 6 7
9 10 11 10 9 9 10 10 9 8 8 8 8 8 6 5 4 3 2 2 2 1 2 2 2 3 3 3 3 2 3 3 3 3 3 4 4 4 4 4 4 5 5 6 6 7 7 7 7
9 11 11 10 9 9 10 11 10 10 8 7 7 7 6 6 6 4 3 3 2 2 2 2 1 3 3 3 2 2 3 4 5 4 4 4 3 3 4 4 5 5 6 7 7 8 8 8 9
10 11 11 11 11 11 11 12 11 10 8 7 6 5 5 5 5 5 4 3 2 2 2 2 2 2 3 3 2 3 5 5 6 5 5 4 3 3 4 4 5 5 5 6 7 7 7 9 9
12 9 9 10 12 15 12 16 12 10 9 7 7 7 6 5 4 4 4 4 3 2 2 2 2 2 2 2 3 4 4 5 5 5 5 4 3 5 6 7 7 7 7 8 7 6 8 9 9
10 8 9 9 12 13 12 15 13 10 11 9 8 7 7 6 5 4 4 3 3 2 2 2 2 2 2 1 3 5 5 5 5 5 6 7 8 7 6 7 8 8 8 8 8 8 8 8 9
7 9 9 10 12 17 13 14 14 12 10 9 7 6 6 7 5 4 4 3 3 2 3 2 3 3 3 2 5 6 7 7 7 9 10 9 8 7 8 7 8 8 8 8 8 8 8 8 9
9 12 16 17 18 18 12 14 13 9 8 8 7 8 7 5 5 5 5 4 3 3 3 3 4 7 7 7 8 8 9 9 9 9 9 9 8 8 9 8 8 9 8 8 8 8 8 9 9
11 11 16 20 20 17 12 16 12 8 7 7 7 7 6 6 5 5 4 4 4 4 4 5 6 8 8 9 9 9 9 9 9 8 8 8 8 8 9 8 9 9 9 9 9 9 9 8 9
10 13 10 15 15 18 15 12 10 8 8 8 7 7 7 6 6 6 6 6 7 7 7 7 7 8 9 9 8 8 8 8 8 8 8 8 8 8 8 8 10 8 8 9 9 9 9 9 9
9 8 13 14 19 20 15 15 14 11 9 8 9 8 7 7 7 6 6 7 7 7 7 8 8 8 9 9 9 8 8 8 8 8 8 8 8 8 8 8 8 9 9 9 9 9 9 9 10
11 11 11 12 15 18 20 16 11 10 9 9 8 7 7 7 6 6 6 7 7 7 7 7 8 9 8 8 8 8 8 7 7 8 8 8 8 8 8 9 8 9 9 9 10 10 9 9 9
10 10 11 17 16 16 17 15 9 9 8 7 7 7 6 6 6 6 6 6 7 6 6 6 7 7 8 8 9 8 8 7 7 7 7 7 8 8 8 9 9 9 9 9 9 9 9 9 10

GFSSGP_con_lsi_033.txt.gz
Lid_Strength_Index
1 2 5 6 12 15 16 13 12 10 10 7 7 8 9 8 10 13 2 1 0 0 -0 -0 -1 -1 -1 -1 -2 -2 -2 -2 -1 -2 -2 -2 -2 -2 -2 -3 -3 -3 -3 -3 -3 -3 -3 -2 -2
3 3 5 10 15 18 15 12 11 10 8 6 6 7 8 10 5 5 3 1 0 0 -0 -0 -1 -1 -1 -1 -2 -2 -2 -2 -2 -2 -2 -2 -2 -2 -2 -2 -2 -3 -3 -3 -3 -3 -3 -2 -2
3 3 7 12 17 16 15 12 11 8 7 7 8 6 7 8 4 4 1 0 -0 -0 -0 -0 -1 -1 -1 -1 -2 -2 -2 -2 -2 -2 -2 -2 -2 -2 -2 -2 -2 -3 -3 -3 -3 -3 -3 -3 -3
5 7 10 14 16 14 12 11 9 9 7 6 7 9 6 3 4 2 0 0 0 0 -0 -0 -0 -1 -1 -1 -2 -2 -2 -2 -2 -2 -2 -2 -2 -2 -2 -2 -2 -3 -2 -2 -2 -2 -3 -3 -3
6 9 13 15 14 12 9 8 8 9 8 7 7 9 8 3 2 1 1 0 1 1 -0 -0 -0 -1 -1 -2 -2 -2 -2 -2 -2 -2 -2 -2 -2 -2 -2 -2 -2 -2 -2 -2 -2 -3 -3 -3 -4
9 11 13 15 13 9 9 8 8 8 8 7 7 8 7 2 2 1 0 1 1 1 -0 -0 -1 -1 -1 -1 -1 -1 -1 -1 -2 -2 -2 -2 -2 -2 -2 -2 -3 -3 -3 -4 -4 -4 -4 -3 -3
10 11 13 13 13 12 10 7 8 8 8 8 6 9 6 4 2 1 1 2 2 1 -0 -0 -1 -1 -1 -1 -1 -1 -1 -1 -1 -1 -2 -2 -2 -2 -2 -3 -3 -3 -3 -3 -4 -4 -3 -3 -3
8 11 13 13 13 14 8 7 7 7 8 4 5 9 9 4 2 1 1 2 2 2 1 1 0 -0 -0 -0 -1 -1 -1 -1 -2 -2 -2 -2 -2 -3 -3 -3 -3 -3 -3 -3 -3 -3 -3 -3 -3
9 12 14 13 13 10 7 8 6 5 7 6 5 6 4 2 1 2 2 2 3 3 3 2 0 0 0 0 -1 -1 -2 -2 -2 -2 -2 -1 -0 -0 -1 -2 -2 -2 -2 -2 -2 -3 -2 -1 -2
10 13 11 10 8 9 8 9 7 8 8 8 7 4 3 3 3 4 3 3 3 3 3 3 1 -0 -0 -1 -0 0 -0 0 -0 -0 -0 0 0 -0 -1 -2 -2 -2 -2 -2 -2 -2 -1 1 3
10 11 10 9 7 7 8 8 6 8 10 8 8 6 4 4 4 4 3 3 3 2 2 3 2 -0 0 1 0 -0 0 0 0 -0 1 0 0 0 1 1 1 1 0 2 2 3 3 3 4
11 9 9 8 7 7 8 7 8 8 7 5 5 4 4 4 4 4 3 3 2 2 2 1 0 0 0 0 0 0 0 0 1 1 1 1 2 1 1 1 2 2 3 3 4 4 5 5 4
10 9 8 7 6 7 6 7 8 8 6 4 4 4 5 4 4 3 3 2 2 2 1 1 0 1 0 0 0 0 -0 0 -0 -0 0 1 2 2 3 3 3 3 3 4 4 5 5 5 5
7 8 7 7 7 6 8 8 7 7 5 6 5 5 4 4 4 3 3 3 2 2 1 1 0 0 1 0 0 0 0 0 1 1 1 2 3 2 3 4 4 4 4 5 5 5 5 5 4
7 10 8 8 8 8 6 9 9 6 6 6 6 5 5 4 4 4 3 3 2 2 1 1 1 2 1 0 0 1 1 1 2 2 2 2 2 3 3 4 4 4 5 5 5 4 4 5 5
9 10 12 9 8 7 8 12 9 6 7 7 7 6 5 5 4 3 2 2 2 2 1 1 1 2 1 1 1 1 2 2 2 2 2 2 3 2 3 4 5 5 5 4 4 5 5 5 7
11 14 12 11 8 8 9 11 9 7 7 8 7 6 6 5 4 3 2 2 2 1 2 3 2 2 2 3 3 3 3 3 3 2 2 2 2 3 5 6 5 5 5 5 5 6 6 7 7
14 13 13 13 11 9 10 11 8 8 7 7 7 6 6 5 5 3 2 2 1 2 2 2 3 3 3 3 3 3 4 4 3 2 2 3 3 4 5 5 4 5 6 6 6 7 7 7 8
10 11 12 11 8 9 10 10 9 9 9 9 8 7 6 6 4 3 2 2 2 3 3 2 3 3 3 4 4 4 4 3 3 3 4 5 4 4 4 5 5 5 6 6 6 7 8 8 9
10 11 11 10 9 10 11 11 9 8 8 7 8 8 7 6 5 4 3 3 2 3 3 3 2 3 3 3 3 3 3 4 4 5 6 5 5 4 4 5 5 6 6 7 7 7 8 8 9
11 11 11 11 10 11 11 12 12 11 8 8 7 6 6 6 5 5 4 3 3 3 3 2 2 3 3 3 3 5 5 6 7 7 7 6 5 4 4 5 6 6 6 7 8 7 8 9 8
12 10 10 11 12 15 12 16 12 12 10 8 7 7 7 6 5 4 4 4 3 3 2 2 2 2 3 3 3 4 5 5 7 7 7 6 5 6 7 7 8 8 8 8 8 7 8 9 10
10 9 10 10 12 14 13 15 13 11 11 9 8 7 6 6 5 5 4 3 3 3 2 2 2 2 2 3 3 4 5 6 7 7 6 9 8 7 7 7 7 7 8 9 9 8 8 9 10
8 10 11 11 12 17 14 15 15 12 10 9 7 7 7 7 6 5 4 3 3 3 2 2 2 2 2 3 4 5 6 7 7 8 9 9 9 9 8 8 8 7 8 9 8 9 9 9 9
10 13 17 17 18 18 12 14 13 10 9 9 8 7 8 7 6 5 4 4 3 3 3 2 2 3 3 3 5 6 7 7 7 8 10 10 10 10 8 8 8 8 8 7 7 9 9 9 10
11 12 16 19 20 17 13 17 12 9 8 8 8 8 7 6 5 5 4 4 3 3 3 2 3 6 6 6 7 8 7 7 7 7 8 9 9 9 8 8 8 8 8 8 10 10 9 9 10
10 13 11 15 15 18 15 13 10 9 9 8 8 7 7 6 6 5 4 4 3 3 3 4 6 8 9 9 9 10 9 9 8 8 9 8 8 8 8 8 8 8 8 10 10 10 10 9 9
10 9 14 15 19 20 16 15 14 11 10 9 8 8 7 6 6 5 4 5 5 6 7 7 8 9 10 10 9 9 9 8 8 9 8 8 8 8 8 8 8 8 9 9 10 10 9 9 10
11 12 12 12 15 18 20 16 12 11 9 9 8 8 7 6 6 5 5 5 6 7 8 8 9 10 10 10 10 9 10 9 9 8 8 8 8 8 8 8 8 9 9 9 9 10 10 10 10
10 11 12 16 16 17 18 16 10 10 9 9 7 7 7 6 5 5 6 7 8 7 8 8 8 10 10 9 9 8 9 9 8 8 8 8 8 8 8 8 9 9 9 9 10 10 9 10 10

GFSSGP_con_lsi_039.txt.gz
Lid_Strength_Index
-1 1 1 4 8 9 11 10 9 9 8 7 6 7 8 8 9 11 2 1 0 0 -1 -1 -1 -1 -1 -2 -2 -2 -2 -2 -2 -2 -2 -2 -2 -3 -2 -2 -2 -3 -3 -2 -2 -2 -2 -2 -2
1 2 3 6 9 12 11 10 9 9 7 6 6 7 8 9 5 4 3 0 -0 -0 -1 -1 -1 -1 -1 -1 -2 -2 -2 -2 -2 -2 -2 -2 -2 -2 -2 -2 -2 -3 -3 -2 -2 -2 -2 -2 -2
1 3 4 7 10 11 11 9 8 7 6 6 7 6 7 8 4 3 1 0 -0 -0 -1 -1 -1 -1 -1 -2 -2 -2 -2 -2 -2 -2 -2 -2 -2 -2 -2 -2 -2 -3 -3 -3 -2 -2 -2 -2 -2
2 3 7 9 10 10 10 9 8 8 6 6 6 9 5 3 3 2 0 -0 0 -0 -1 -1 -1 -1 -1 -2 -2 -2 -2 -2 -2 -2 -2 -2 -2 -2 -2 -2 -3 -3 -3 -3 -2 -2 -2 -3 -3
4 5 8 10 11 9 9 7 7 8 8 7 6 9 7 3 1 1 1 0 1 0 -1 -1 -0 -1 -1 -2 -2 -2 -2 -2 -2 -2 -2 -2 -2 -2 -2 -2 -2 -3 -3 -3 -2 -2 -3 -3 -3
5 7 9 11 10 9 7 7 7 8 7 7 7 7 7 2 3 2 1 1 -0 0 -1 -1 -1 -1 -1 -1 -1 -1 -1 -2 -2 -2 -2 -2 -2 -2 -2 -2 -2 -2 -3 -3 -3 -3 -3 -3 -4
6 7 10 10 10 11 8 6 8 8 7 7 5 9 6 4 2 3 3 2 1 0 0 1 0 -1 -1 -1 -1 -1 -1 -1 -1 -1 -1 -2 -2 -2 -3 -3 -3 -3 -3 -3 -3 -3 -4 -3 -3
5 7 10 10 11 11 7 7 6 7 8 4 4 9 8 4 2 2 2 2 2 1 2 2 3 1 -0 -1 -1 -1 -1 -1 -1 -2 -2 -2 -3 -3 -3 -3 -3 -3 -3 -3 -4 -3 -3 -2 -2
6 8 10 11 11 9 7 8 6 5 7 6 5 5 4 3 2 3 3 3 3 4 4 4 4 1 0 -0 -1 -1 -1 -1 -1 -2 -2 -2 -2 -2 -2 -2 -3 -3 -3 -3 -3 -3 -2 -2 -2
6 9 9 8 8 7 7 7 7 7 8 7 6 4 3 3 3 4 4 4 4 4 4 4 2 2 0 1 -1 -1 -1 -0 -1 -1 -2 -2 -2 -2 -2 -2 -2 -2 -2 -2 -2 -1 -1 -0 0
8 9 8 7 7 6 7 7 6 8 9 7 7 6 4 4 4 4 4 4 4 3 2 2 1 1 1 1 1 0 0 -0 -1 -2 -2 -2 -2 -2 -2 -2 -2 -2 -1 1 1 1 1 1 1
9 8 7 7 6 7 7 6 8 7 7 5 5 4 4 4 4 4 4 3 3 3 3 1 2 2 1 0 1 1 0 -1 -1 -2 -2 -2 -1 -1 -1 -1 -0 1 1 1 1 1 1 1 2
9 8 7 6 6 6 6 7 8 8 5 4 4 4 5 4 4 4 3 3 2 3 2 3 2 2 0 0 1 -0 -1 -1 -2 -2 -2 -1 -1 -1 -1 -0 1 1 1 1 1 2 2 2 2
6 7 7 6 6 6 8 8 7 7 5 5 5 5 4 4 4 3 3 3 3 2 2 1 1 1 -1 -1 -1 -0 -1 -1 -1 -1 -1 -2 -1 -1 -1 1 2 2 1 2 1 2 2 2 2
6 8 7 7 7 7 6 8 9 6 5 6 6 5 5 4 3 4 2 2 2 1 1 0 -0 -1 -1 -1 -1 -1 -1 -1 -1 -1 -2 -1 -1 -1 1 1 2 2 2 2 2 2 1 2 3
9 8 10 8 7 7 7 11 8 6 6 7 6 5 5 4 4 3 2 2 1 1 1 1 0 -0 -0 -0 -1 -1 -1 -1 -1 -1 -1 -0 -0 1 1 2 2 2 2 2 3 2 2 3 3
9 11 10 10 7 8 8 10 8 6 7 7 6 6 5 5 4 3 2 2 1 1 1 1 -0 -0 -0 -0 -1 -1 -1 -1 -1 -0 -0 -0 0 0 1 2 2 2 2 3 2 2 2 3 3
11 11 11 10 9 8 9 9 8 7 7 7 6 6 6 5 4 3 2 1 1 1 0 0 0 -0 -0 0 -1 -1 -1 -1 -0 -0 -1 -0 0 1 2 3 2 3 3 3 2 3 3 3 3
9 10 10 9 8 8 9 9 9 8 8 8 7 6 6 5 3 2 2 1 1 1 1 1 1 0 0 1 1 1 1 0 0 0 0 0 1 2 2 3 3 3 3 3 3 3 3 4 3
9 10 10 9 9 9 9 9 8 8 8 7 7 7 6 5 4 3 3 2 2 1 1 1 1 0 0 0 0 -0 0 0 1 1 1 1 1 2 2 3 4 3 3 3 3 3 4 3 4
9 10 10 10 9 9 10 10 9 8 7 6 6 5 5 5 5 4 3 3 2 2 1 1 1 0 0 0 0 1 2 2 3 3 3 2 2 2 3 3 3 3 3 4 4 4 4 6 5
11 9 9 10 10 12 10 13 11 9 9 8 7 6 6 5 4 4 3 3 2 2 1 1 1 1 1 1 1 1 1 2 2 3 3 3 3 4 4 4 4 5 5 5 5 5 4 5 6
9 8 9 9 11 11 11 12 10 9 10 9 7 6 5 5 4 4 4 3 2 1 1 1 1 1 1 1 1 1 1 1 3 4 4 5 4 4 5 5 5 6 5 5 5 5 5 6 7
8 9 10 10 11 15 12 12 12 10 9 8 7 6 5 5 4 3 3 2 2 2 1 1 1 1 1 2 1 2 1 3 4 5 6 6 6 6 6 6 6 6 6 6 6 6 7 7 5
9 10 14 15 16 16 11 13 11 8 8 7 6 6 5 4 4 4 4 3 3 2 2 1 1 2 2 2 2 2 2 3 4 5 6 8 7 7 7 6 7 7 6 7 7 7 6 5 5
10 10 14 18 18 15 12 14 10 7 7 7 6 6 6 4 4 4 4 3 3 3 2 2 2 2 2 2 2 2 2 3 3 4 6 7 7 7 7 7 6 6 6 6 8 7 6 5 5
10 12 10 14 14 16 13 11 8 7 7 6 6 6 6 5 4 4 3 3 3 2 2 2 2 2 2 1 1 2 2 3 3 5 6 6 6 7 7 6 6 6 8 7 7 6 6 5 5
9 8 13 13 18 19 14 13 12 9 8 7 7 6 5 5 5 4 3 3 2 2 2 1 1 2 1 1 1 2 2 2 3 6 7 6 6 7 7 6 6 7 6 8 6 6 6 6 5
10 11 11 11 13 16 17 14 9 8 7 7 6 6 5 5 4 4 4 3 2 2 2 2 2 2 1 2 2 2 3 3 4 5 5 7 7 6 7 6 7 8 6 6 6 6 6 6 6
9 10 10 14 15 14 15 14 8 7 8 8 7 7 5 4 4 4 4 3 3 3 2 2 2 2 2 3 4 4 4 5 6 6 6 6 6 6 6 6 7 7 7 6 6 7 7 7 7